[[{"header":{"parameterUnit":"m.s-1","parameterCategory":2,"la1":30.2991,"la2":30.254,"lo1":-89.0895,"lo2":-89.0444,"dy":0.0017,"dx":0.0017,"nx":28,"ny":28,"refTime":"2025-11-07T03:00:00:Z","depth":"0","parameterNumber":2,"parameterNumberName":"U-component_of_CURRENTS"},"data":[0,0,0,0,0,0,0,0,0,0,0,0,0,0,0,0,0,0,0,0,0,0,0,0,0,0,0,0,0,0,0,0,0,0,0,0,0,0,0,0,0,0,0,0,0,0,0,0,0,0,0,0,0,0,0,0,0,0,-0.2571,-0.2572,0,-0.2605,-0.2606,-0.2606,-0.2589,-0.2589,-0.2588,-0.2587,-0.2568,-0.2569,-0.2569,0,0,0,0,0,0,0,0,0,0,0,0,0,-0.2494,-0.2495,-0.2571,-0.2572,-0.2572,-0.2605,-0.2606,-0.2606,-0.2589,-0.2589,-0.2588,-0.2587,-0.2568,-0.2569,-0.2569,0,0,0,0,0,0,0,0,0,0,0,0,0,-0.2525,-0.2495,-0.2571,-0.257,-0.257,-0.2605,-0.2606,-0.2606,-0.259,-0.2589,-0.2588,-0.2587,-0.2568,-0.2569,-0.2569,-0.259,0,0,-0.2569,-0.2569,0,0,0,0,0,0,0,0,-0.2523,-0.2528,-0.2569,-0.257,-0.2571,-0.2594,-0.2571,-0.2599,-0.259,-0.258,-0.2587,-0.2586,-0.2574,-0.2574,-0.258,-0.2589,-0.2588,-0.2569,-0.2569,-0.2569,-0.257,0,0,0,0,0,0,0,-0.2521,-0.2526,-0.2582,-0.257,-0.2571,-0.2568,-0.2571,-0.2577,-0.258,-0.2581,-0.258,-0.2588,-0.2574,-0.258,-0.2579,-0.2588,-0.2569,-0.2569,-0.257,-0.257,-0.261,-0.2611,0,0,0,0,0,0,-0.2523,-0.2525,-0.2581,-0.2584,-0.2547,-0.2571,-0.2574,-0.2586,-0.2581,-0.258,-0.2589,-0.2587,-0.258,-0.2579,-0.2579,-0.26,-0.2569,-0.257,-0.257,-0.2609,-0.261,-0.2611,0,0,0,0,0,0,-0.2521,-0.2528,-0.258,-0.2556,-0.2563,-0.2573,-0.2586,-0.2587,-0.2589,-0.2588,-0.2585,-0.259,-0.2579,-0.2578,-0.2588,-0.2599,-0.257,-0.257,-0.2608,-0.2609,-0.2611,-0.2645,0,0,0,0,0,0,-0.2519,-0.2527,-0.2531,-0.2557,-0.2564,-0.2607,-0.2588,-0.2588,-0.2597,-0.2595,-0.2588,-0.2586,-0.2579,-0.2588,-0.2588,-0.2599,-0.257,-0.2607,-0.2609,-0.261,-0.2643,-0.2648,-0.2652,0,0,0,0,0,-0.2516,-0.253,-0.2531,-0.2538,-0.2571,-0.2608,-0.2612,-0.2614,-0.2598,-0.2609,-0.2603,-0.2586,-0.2599,-0.2589,-0.2589,-0.26,-0.2606,-0.2608,-0.261,-0.2641,-0.2647,-0.2652,0,0,0,0,0,0,-0.2496,-0.2531,-0.2532,-0.2555,-0.2581,-0.2606,-0.2613,-0.2616,-0.2621,-0.2612,-0.2601,-0.2599,-0.2613,-0.2605,-0.2594,-0.2618,-0.2599,-0.2601,-0.2622,-0.2628,-0.2632,-0.2633,-0.257,0,0,0,0,0,-0.2496,-0.2511,-0.2548,-0.2562,-0.2577,-0.2594,-0.2605,-0.2613,-0.2624,-0.2625,-0.2622,-0.2618,-0.2625,-0.2624,-0.263,-0.2643,-0.2617,-0.265,-0.2654,-0.2658,-0.266,-0.2636,-0.2638,-0.2618,-0.2618,-0.2618,0,0,-0.2487,-0.251,-0.2516,-0.2558,-0.2573,-0.2606,-0.2597,-0.2622,-0.2643,-0.2622,-0.2639,-0.2636,-0.2633,-0.2651,-0.2655,-0.2642,-0.2648,-0.2661,-0.2664,-0.2664,-0.2638,-0.264,-0.2641,-0.262,-0.262,-0.2619,0,0,-0.2489,-0.2504,-0.2522,-0.2554,-0.259,-0.2609,-0.2618,-0.2649,-0.2654,-0.2678,-0.2668,-0.2672,-0.268,-0.2682,-0.2683,-0.2716,-0.2676,-0.2717,-0.2736,-0.2713,-0.2713,-0.2714,-0.2672,-0.2669,-0.2715,-0.2715,-0.2715,0,-0.2477,-0.2508,-0.2533,-0.2568,-0.259,-0.2612,-0.2641,-0.2663,-0.2691,-0.2695,-0.2685,-0.2695,-0.2695,-0.2709,-0.2726,-0.2725,-0.2698,-0.2714,-0.2717,-0.2717,-0.2717,-0.2674,-0.267,-0.2717,-0.2717,-0.2717,-0.2716,0,-0.25,-0.2528,-0.2543,-0.2592,-0.2622,-0.2651,-0.2692,-0.2713,-0.2716,-0.2729,-0.2741,-0.2742,-0.2741,-0.2748,-0.2749,-0.2756,-0.2731,-0.2727,-0.2699,-0.272,-0.2674,-0.2669,-0.272,-0.2719,-0.2718,-0.2718,0,0,-0.2455,-0.2541,-0.2543,-0.257,-0.2636,-0.2661,-0.2704,-0.2741,-0.2753,-0.2771,-0.2773,-0.2796,-0.2785,-0.2786,-0.2783,-0.2771,-0.2751,-0.2754,-0.2751,-0.2705,-0.2682,-0.2571,-0.2554,-0.2743,-0.2743,-0.2743,-0.2645,0,-0.2458,-0.2521,-0.2565,-0.2615,-0.2648,-0.2692,-0.2727,-0.2764,-0.2781,-0.2793,-0.2792,-0.2797,-0.2803,-0.2797,-0.279,-0.2767,-0.2741,-0.2777,-0.2675,-0.2672,-0.2564,-0.2546,-0.2428,-0.2323,-0.264,-0.2639,-0.2639,0,-0.2455,-0.2501,-0.2553,-0.2624,-0.2641,-0.2674,-0.2718,-0.2756,-0.279,-0.2799,-0.2805,-0.2805,-0.2806,-0.2798,-0.2756,-0.2777,-0.2734,-0.2707,-0.2702,-0.2582,-0.255,-0.2356,-0.2302,-0.2293,-0.263,-0.2631,-0.2631,0,-0.2397,-0.2483,-0.2518,-0.2547,-0.2637,-0.2655,-0.2694,-0.2744,-0.2766,-0.2794,-0.2797,-0.2802,-0.2785,-0.2755,-0.2708,-0.2732,-0.2635,-0.2655,-0.2507,-0.2498,-0.2369,-0.2349,-0.2286,-0.2605,-0.2605,-0.2606,-0.2606,0,-0.2375,-0.2399,-0.2493,-0.2513,-0.2542,-0.2619,-0.2644,-0.2684,-0.2732,-0.2738,-0.2786,-0.277,-0.2773,-0.2725,-0.2692,-0.2566,-0.2613,-0.2496,-0.2462,-0.2376,-0.2359,-0.2322,-0.2368,-0.2602,-0.2603,-0.2604,-0.2604,0,-0.2295,-0.2365,-0.2404,-0.2493,-0.2514,-0.2529,-0.2607,-0.2622,-0.2686,-0.2692,-0.2699,-0.2731,-0.2659,-0.2632,-0.256,-0.2515,-0.2377,-0.2367,-0.2254,-0.2209,-0.2067,-0.2119,-0.2036,-0.1978,-0.2193,-0.219,-0.2187,0,-0.2257,-0.227,-0.2357,-0.2368,-0.2401,-0.2445,-0.2468,-0.2568,-0.2589,-0.2647,-0.263,-0.2596,-0.2514,-0.2373,-0.2281,-0.2161,-0.2213,-0.2011,-0.2037,-0.2022,-0.2058,-0.2122,-0.2085,-0.1881,-0.1876,-0.1872,-0.1868,0,-0.216,-0.2191,-0.2219,-0.2254,-0.2279,-0.2318,-0.2365,-0.2383,-0.2482,-0.248,-0.2445,-0.2386,-0.2258,-0.2076,-0.1947,-0.188,-0.197,-0.1919,-0.1937,-0.1826,-0.1859,-0.1797,-0.1986,-0.1831,-0.1834,-0.1837,-0.1839,-0.1841,-0.2057,-0.2051,-0.2089,-0.2106,-0.2142,-0.2162,-0.2118,-0.2186,-0.2182,-0.2124,-0.2206,-0.2041,-0.1958,-0.1738,-0.1667,-0.1542,-0.1653,-0.1525,-0.1593,-0.1662,-0.1594,-0.1685,-0.1475,-0.1477,-0.1478,-0.1479,-0.148,0,-0.1915,-0.1926,-0.1936,-0.196,-0.1939,-0.2003,-0.2009,-0.1913,-0.1831,-0.1811,-0.1736,-0.1625,-0.1479,-0.1423,-0.1327,-0.126,-0.1265,-0.1262,-0.1349,-0.1328,-0.1411,-0.1384,-0.1104,-0.1104,-0.1104,-0.1104,-0.1104,-0.1104,-0.1838,-0.1796,-0.1811,-0.174,-0.174,-0.1601,-0.1546,-0.1442,-0.1356,-0.1173,-0.1085,-0.1054,-0.1167,-0.1331,-0.1259,-0.119,-0.1208,-0.1158,-0.1223,-0.1319,-0.1351,-0.1381,-0.1365,-0.1085,-0.1085,-0.1072,-0.1072,-0.1072]},{"header":{"parameterUnit":"m.s-1","parameterCategory":2,"la1":30.2991,"la2":30.254,"lo1":-89.0895,"lo2":-89.0444,"dy":0.0017,"dx":0.0017,"nx":28,"ny":28,"refTime":"2025-11-07T03:00:00:Z","depth":"0","parameterNumber":3,"parameterNumberName":"V-component_of_CURRENTS"},"data":[0,0,0,0,0,0,0,0,0,0,0,0,0,0,0,0,0,0,0,0,0,0,0,0,0,0,0,0,0,0,0,0,0,0,0,0,0,0,0,0,0,0,0,0,0,0,0,0,0,0,0,0,0,0,0,0,0,0,-0.0163,-0.0162,0,-0.0058,-0.0057,-0.0055,0.0017,0.0018,0.0018,0.0018,0.0162,0.0166,0.0169,0,0,0,0,0,0,0,0,0,0,0,0,0,-0.0251,-0.025,-0.0164,-0.0162,-0.0161,-0.0058,-0.0057,-0.0055,0.0017,0.0018,0.0018,0.0018,0.0161,0.0165,0.017,0,0,0,0,0,0,0,0,0,0,0,0,0,-0.0184,-0.025,-0.0164,-0.0114,-0.0109,-0.0058,-0.0056,-0.0054,0.0017,0.0018,0.0018,0.0019,0.016,0.0165,0.017,0.0192,0,0,0.0186,0.0189,0,0,0,0,0,0,0,0,-0.0188,-0.0181,-0.0123,-0.0118,-0.0112,-0.0035,-0.0034,0.0029,0.0017,-0.0029,0.0018,0.0019,0.0098,0.0109,0.013,0.0199,0.0205,0.0187,0.019,0.0192,0.0194,0,0,0,0,0,0,0,-0.0193,-0.0185,-0.012,-0.0122,-0.0115,-0.008,-0.007,-0.0022,0.0033,-0.0025,-0.002,-0.0011,0.0102,0.0124,0.0134,0.0207,0.0187,0.0191,0.0194,0.0197,0.0312,0.0312,0,0,0,0,0,0,-0.0213,-0.019,-0.0123,-0.0117,-0.0152,-0.0079,-0.0068,-0.0058,0.0032,0.0045,-0.0012,-0.0008,0.0115,0.0127,0.0139,0.0168,0.0192,0.0197,0.02,0.0312,0.0312,0.0312,0,0,0,0,0,0,-0.0215,-0.0208,-0.0127,-0.0152,-0.014,-0.0079,-0.0068,-0.0057,-0.0034,0.0041,0.0055,-0.0002,0.0116,0.0132,0.0178,0.0175,0.0199,0.0204,0.0313,0.0312,0.0312,0.0228,0,0,0,0,0,0,-0.0218,-0.021,-0.0211,-0.0154,-0.0139,-0.0109,-0.0068,-0.0055,-0.0031,-0.0025,0.0054,0.0068,0.0118,0.017,0.0184,0.0182,0.0208,0.0313,0.0312,0.0312,0.0231,0.0225,0.022,0,0,0,0,0,-0.0222,-0.0229,-0.0212,-0.0204,-0.0143,-0.0109,-0.0099,-0.0052,-0.0031,-0.0028,0.0028,0.0066,0.0179,0.0174,0.019,0.019,0.0313,0.0313,0.0312,0.0234,0.0227,0.0221,0,0,0,0,0,0,-0.0265,-0.022,-0.0201,-0.0193,-0.016,-0.0098,-0.0091,-0.0059,-0.0012,-0.0006,0.0066,0.0084,0.0123,0.0168,0.0161,0.0224,0.0252,0.0255,0.0186,0.018,0.0175,0.0164,0.0213,0,0,0,0,0,-0.0278,-0.0272,-0.0223,-0.0218,-0.0205,-0.015,-0.0131,-0.01,-0.0052,-0.003,0.0024,0.0084,0.0135,0.0165,0.0215,0.0249,0.0302,0.026,0.0254,0.0249,0.0251,0.0325,0.0326,0.0312,0.0312,0.0312,0,0,-0.0293,-0.0269,-0.0264,-0.0228,-0.0197,-0.0187,-0.0137,-0.0115,-0.0103,-0.0022,0.001,0.0065,0.0139,0.0178,0.0199,0.0215,0.028,0.0249,0.0244,0.0249,0.0325,0.0326,0.0328,0.0312,0.0312,0.0312,0,0,-0.0329,-0.0301,-0.0311,-0.029,-0.0254,-0.0218,-0.0218,-0.0163,-0.0134,-0.0097,-0.0036,0.0017,0.009,0.0146,0.0183,0.0179,0.0246,0.0192,0.016,0.023,0.0232,0.0235,0.0295,0.0303,0.0192,0.0191,0.0191,0,-0.0352,-0.0355,-0.031,-0.0315,-0.0303,-0.024,-0.0248,-0.0209,-0.0146,-0.012,-0.0101,0.0021,0.0077,0.0141,0.0138,0.0167,0.0215,0.0175,0.0223,0.0226,0.023,0.0292,0.0302,0.0187,0.0188,0.0188,0.0189,0,-0.0394,-0.0397,-0.0402,-0.0387,-0.0367,-0.0364,-0.0309,-0.0285,-0.0242,-0.0193,-0.0127,-0.0044,0.003,0.0054,0.0096,0.015,0.0178,0.0203,0.0235,0.0226,0.0292,0.0304,0.0182,0.0183,0.0184,0.0185,0,0,-0.0442,-0.0436,-0.0437,-0.0445,-0.0405,-0.0394,-0.0373,-0.0328,-0.0305,-0.0237,-0.0195,-0.0106,-0.0051,-0.0005,0.006,0.0122,0.0184,0.0166,0.0172,0.0218,0.0337,0.0372,0.039,0.0218,0.022,0.0221,0.0368,0,-0.0491,-0.0529,-0.05,-0.0524,-0.0538,-0.0476,-0.046,-0.0407,-0.0346,-0.0289,-0.0189,-0.0127,-0.0075,-0.0038,0.0031,0.0152,0.0214,0.0142,0.0346,0.0352,0.0379,0.0404,0.0465,0.0603,0.0381,0.0383,0.0384,0,-0.0542,-0.0561,-0.0603,-0.0597,-0.0594,-0.0592,-0.0544,-0.0518,-0.0419,-0.0369,-0.0283,-0.0197,-0.009,-0.0051,0.0147,0.0099,0.0206,0.0297,0.0305,0.0378,0.0411,0.058,0.0634,0.0799,0.0404,0.0403,0.0401,0,-0.0609,-0.0628,-0.0666,-0.0666,-0.0648,-0.0646,-0.0624,-0.0545,-0.0514,-0.0414,-0.0373,-0.0233,-0.0151,-0.0006,0.0182,0.0168,0.0404,0.0411,0.0544,0.0547,0.0661,0.0671,0.0896,0.0545,0.0545,0.0544,0.0544,0,-0.0676,-0.0702,-0.0704,-0.0727,-0.0758,-0.0712,-0.071,-0.0666,-0.0585,-0.053,-0.042,-0.0336,-0.0134,0.0028,0.0179,0.0408,0.0407,0.0551,0.0595,0.0632,0.0637,0.0835,0.0879,0.055,0.0549,0.0548,0.0547,0,-0.0745,-0.0747,-0.0792,-0.0795,-0.0797,-0.0816,-0.0783,-0.0768,-0.0687,-0.0611,-0.0581,-0.0395,-0.0175,0.0029,0.0293,0.0415,0.073,0.0695,0.0718,0.0762,0.1013,0.1047,0.1293,0.1403,0.086,0.0862,0.0864,0,-0.0785,-0.0819,-0.0855,-0.0883,-0.0889,-0.0903,-0.0906,-0.0835,-0.0802,-0.0629,-0.0591,-0.037,-0.0177,0.0204,0.046,0.0735,0.0849,0.0929,0.091,0.1052,0.1124,0.114,0.1216,0.1031,0.1033,0.1036,0.1037,0,-0.0855,-0.0866,-0.0903,-0.0971,-0.0994,-0.1006,-0.0994,-0.0972,-0.0852,-0.0735,-0.0532,-0.0359,-0.0005,0.0354,0.068,0.0843,0.1055,0.0983,0.1148,0.1292,0.1311,0.143,0.0894,0.1058,0.1056,0.1054,0.1053,0.1052,-0.0892,-0.094,-0.0988,-0.1042,-0.1073,-0.1069,-0.1013,-0.0947,-0.0825,-0.0538,-0.0456,-0.0077,0.028,0.0765,0.0936,0.1306,0.1244,0.1425,0.146,0.1468,0.1565,0.1057,0.1251,0.125,0.125,0.1249,0.1248,0,-0.0928,-0.098,-0.105,-0.1086,-0.1097,-0.1096,-0.103,-0.0897,-0.0673,-0.0392,-0.0121,0.0399,0.0811,0.1149,0.158,0.178,0.1826,0.1881,0.1944,0.2004,0.1596,0.1594,0.1849,0.1849,0.1849,0.1849,0.1849,0.1848,-0.0944,-0.1019,-0.1058,-0.1084,-0.1081,-0.0974,-0.0888,-0.0677,-0.0436,0.0075,0.049,0.0761,0.1133,0.1746,0.2173,0.2219,0.2407,0.2377,0.2468,0.2201,0.2162,0.2124,0.2137,0.2503,0.2503,0.2897,0.2901,0.2904]}],[{"header":{"parameterUnit":"m.s-1","parameterCategory":2,"la1":30.2991,"la2":30.254,"lo1":-89.0895,"lo2":-89.0444,"dy":0.0017,"dx":0.0017,"nx":28,"ny":28,"refTime":"2025-11-07T03:00:00:Z","depth":"2","parameterNumber":2,"parameterNumberName":"U-component_of_CURRENTS"},"data":[0,0,0,0,0,0,0,0,0,0,0,0,0,0,0,0,0,0,0,0,0,0,0,0,0,0,0,0,0,0,0,0,0,0,0,0,0,0,0,0,0,0,0,0,0,0,0,0,0,0,0,0,0,0,0,0,0,0,-0.2456,-0.2457,0,-0.2491,-0.2492,-0.2492,-0.2482,-0.2482,-0.2481,-0.2481,-0.2473,-0.2473,-0.2474,0,0,0,0,0,0,0,0,0,0,0,0,0,-0.2383,-0.2384,-0.2456,-0.2457,-0.2457,-0.2491,-0.2492,-0.2492,-0.2483,-0.2482,-0.2481,-0.2481,-0.2473,-0.2473,-0.2474,0,0,0,0,0,0,0,0,0,0,0,0,0,-0.2414,-0.2384,-0.2456,-0.2458,-0.2459,-0.2491,-0.2492,-0.2492,-0.2483,-0.2482,-0.2481,-0.248,-0.2473,-0.2473,-0.2474,-0.2492,0,0,-0.2475,-0.2475,0,0,0,0,0,0,0,0,-0.2412,-0.2416,-0.2457,-0.2458,-0.2459,-0.2484,-0.2463,-0.2491,-0.2483,-0.2471,-0.2481,-0.248,-0.2475,-0.2475,-0.2481,-0.2492,-0.2491,-0.2475,-0.2475,-0.2476,-0.2476,0,0,0,0,0,0,0,-0.241,-0.2415,-0.2468,-0.2458,-0.2459,-0.2459,-0.2462,-0.2468,-0.2474,-0.2472,-0.2472,-0.248,-0.2474,-0.2481,-0.2481,-0.2491,-0.2475,-0.2475,-0.2476,-0.2476,-0.2523,-0.2524,0,0,0,0,0,0,-0.2411,-0.2413,-0.2467,-0.2469,-0.2436,-0.2461,-0.2464,-0.2475,-0.2475,-0.2476,-0.248,-0.2479,-0.248,-0.248,-0.248,-0.2509,-0.2476,-0.2476,-0.2476,-0.2522,-0.2523,-0.2525,0,0,0,0,0,0,-0.2409,-0.2416,-0.2465,-0.2443,-0.245,-0.2463,-0.2475,-0.2476,-0.2482,-0.2482,-0.2481,-0.2485,-0.248,-0.248,-0.2494,-0.2508,-0.2476,-0.2476,-0.2521,-0.2523,-0.2524,-0.2561,0,0,0,0,0,0,-0.2407,-0.2415,-0.242,-0.2443,-0.2451,-0.2492,-0.2476,-0.2477,-0.2489,-0.2488,-0.2486,-0.2485,-0.2479,-0.2494,-0.2494,-0.2508,-0.2477,-0.252,-0.2522,-0.2524,-0.2558,-0.2563,-0.2568,0,0,0,0,0,-0.2404,-0.2418,-0.242,-0.2426,-0.2459,-0.2493,-0.2498,-0.2502,-0.249,-0.2502,-0.25,-0.2485,-0.2506,-0.2495,-0.2496,-0.2509,-0.2519,-0.2521,-0.2523,-0.2556,-0.2562,-0.2568,0,0,0,0,0,0,-0.2387,-0.2419,-0.2421,-0.2443,-0.2469,-0.2493,-0.2501,-0.2506,-0.2514,-0.2509,-0.25,-0.25,-0.2519,-0.2512,-0.25,-0.2529,-0.2509,-0.2512,-0.2534,-0.254,-0.2544,-0.2546,-0.2477,0,0,0,0,0,-0.2387,-0.2402,-0.2437,-0.2451,-0.2466,-0.2483,-0.2495,-0.2504,-0.2517,-0.252,-0.2521,-0.2521,-0.253,-0.2532,-0.254,-0.2556,-0.2532,-0.2565,-0.257,-0.2574,-0.2577,-0.2556,-0.2559,-0.2532,-0.2532,-0.2532,0,0,-0.2381,-0.2402,-0.2408,-0.2448,-0.2463,-0.2496,-0.2488,-0.2514,-0.2536,-0.2518,-0.254,-0.2541,-0.254,-0.2561,-0.2567,-0.2554,-0.2567,-0.2577,-0.258,-0.2581,-0.2559,-0.2561,-0.2563,-0.2534,-0.2533,-0.2533,0,0,-0.2385,-0.24,-0.2418,-0.2447,-0.2483,-0.2501,-0.2511,-0.2543,-0.2551,-0.2578,-0.257,-0.2579,-0.2592,-0.2596,-0.2597,-0.2633,-0.2596,-0.2636,-0.2657,-0.2637,-0.2638,-0.264,-0.2601,-0.2599,-0.2634,-0.2634,-0.2634,0,-0.2376,-0.2406,-0.2428,-0.2462,-0.2484,-0.2506,-0.2536,-0.2558,-0.2589,-0.2595,-0.2589,-0.2607,-0.2608,-0.2626,-0.2644,-0.2643,-0.2618,-0.2634,-0.2641,-0.2642,-0.2643,-0.2603,-0.26,-0.2636,-0.2636,-0.2636,-0.2636,0,-0.2399,-0.2427,-0.2442,-0.2489,-0.2518,-0.2548,-0.2588,-0.2611,-0.2619,-0.2634,-0.2653,-0.2656,-0.2661,-0.2668,-0.2669,-0.2681,-0.2657,-0.2651,-0.2624,-0.2647,-0.2605,-0.26,-0.2639,-0.2638,-0.2638,-0.2637,0,0,-0.2361,-0.2442,-0.2444,-0.2471,-0.2534,-0.2559,-0.2603,-0.2643,-0.2657,-0.2681,-0.2689,-0.2716,-0.2708,-0.2711,-0.2709,-0.27,-0.2685,-0.2682,-0.268,-0.2638,-0.2625,-0.2518,-0.2503,-0.2678,-0.2678,-0.2677,-0.259,0,-0.2366,-0.2427,-0.2468,-0.2519,-0.2551,-0.2593,-0.263,-0.2669,-0.269,-0.2707,-0.271,-0.2721,-0.2727,-0.2725,-0.2721,-0.2699,-0.2678,-0.2709,-0.2614,-0.2611,-0.2508,-0.2496,-0.2328,-0.2227,-0.2585,-0.2585,-0.2584,0,-0.2366,-0.241,-0.2462,-0.2531,-0.2548,-0.2581,-0.2629,-0.2668,-0.2706,-0.2719,-0.2731,-0.2734,-0.274,-0.2732,-0.2696,-0.2714,-0.2676,-0.265,-0.2646,-0.253,-0.2496,-0.2265,-0.2206,-0.2577,-0.2577,-0.2578,-0.2578,0,-0.2314,-0.2397,-0.2434,-0.2461,-0.2548,-0.2569,-0.2609,-0.2661,-0.2685,-0.272,-0.2726,-0.2736,-0.2724,-0.2698,-0.2656,-0.2676,-0.2592,-0.2606,-0.2467,-0.2459,-0.2288,-0.2264,-0.2564,-0.2564,-0.2564,-0.2565,-0.2565,0,-0.2296,-0.2322,-0.2411,-0.2432,-0.2464,-0.2538,-0.2568,-0.2609,-0.2659,-0.2668,-0.272,-0.2708,-0.2715,-0.2674,-0.2643,-0.2526,-0.2573,-0.2459,-0.2426,-0.2295,-0.2274,-0.2562,-0.2563,-0.2561,-0.2562,-0.2563,-0.2563,0,-0.2224,-0.2291,-0.2331,-0.2418,-0.2439,-0.2458,-0.2535,-0.2553,-0.2619,-0.2628,-0.2638,-0.2674,-0.261,-0.2589,-0.2525,-0.2481,-0.2401,-0.2345,-0.2181,-0.2131,-0.2288,-0.2292,-0.2188,-0.2183,-0.2179,-0.2176,-0.2173,0,-0.2191,-0.2205,-0.229,-0.2301,-0.2335,-0.2382,-0.2406,-0.2504,-0.2525,-0.2587,-0.2572,-0.2546,-0.2473,-0.2346,-0.2254,-0.2141,-0.2255,-0.1952,-0.1963,-0.2269,-0.2248,-0.2259,-0.2268,-0.175,-0.1744,-0.1739,-0.1735,0,-0.2105,-0.2135,-0.2164,-0.2196,-0.2223,-0.2262,-0.2309,-0.2326,-0.2424,-0.2432,-0.2403,-0.2352,-0.2226,-0.2024,-0.1904,-0.1835,-0.1963,-0.1848,-0.2189,-0.1876,-0.185,-0.1832,-0.1856,-0.1692,-0.1696,-0.1699,-0.1701,-0.1703,-0.2013,-0.2008,-0.2044,-0.2057,-0.2095,-0.2112,-0.2085,-0.2146,-0.2151,-0.2135,-0.2179,-0.2029,-0.197,-0.1664,-0.1558,-0.1487,-0.1627,-0.1589,-0.1607,-0.1629,-0.1599,-0.1568,-0.135,-0.1352,-0.1354,-0.1356,-0.1358,0,-0.1883,-0.1891,-0.1899,-0.1907,-0.187,-0.1965,-0.1983,-0.1919,-0.186,-0.19,-0.1838,-0.1558,-0.1402,-0.1346,-0.1151,-0.1116,-0.1135,-0.1091,-0.1129,-0.1171,-0.1209,-0.1162,-0.0794,-0.0792,-0.0791,-0.079,0,0,-0.1813,-0.1769,-0.1775,-0.1669,-0.1676,-0.1604,-0.1584,-0.1517,-0.1496,-0.1406,-0.1332,-0.1389,-0.1329,-0.1075,-0.101,-0.0879,-0.1032,-0.0836,-0.1287,-0.1377,-0.1414,-0.1487,-0.1459,0,0,0,0,0]},{"header":{"parameterUnit":"m.s-1","parameterCategory":2,"la1":30.2991,"la2":30.254,"lo1":-89.0895,"lo2":-89.0444,"dy":0.0017,"dx":0.0017,"nx":28,"ny":28,"refTime":"2025-11-07T03:00:00:Z","depth":"2","parameterNumber":3,"parameterNumberName":"V-component_of_CURRENTS"},"data":[0,0,0,0,0,0,0,0,0,0,0,0,0,0,0,0,0,0,0,0,0,0,0,0,0,0,0,0,0,0,0,0,0,0,0,0,0,0,0,0,0,0,0,0,0,0,0,0,0,0,0,0,0,0,0,0,0,0,-0.0261,-0.026,0,-0.0164,-0.0163,-0.0162,-0.0093,-0.0093,-0.0093,-0.0092,0.0041,0.0044,0.0048,0,0,0,0,0,0,0,0,0,0,0,0,0,-0.0337,-0.0336,-0.0261,-0.026,-0.0259,-0.0165,-0.0163,-0.0161,-0.0094,-0.0093,-0.0093,-0.0092,0.004,0.0044,0.0048,0,0,0,0,0,0,0,0,0,0,0,0,0,-0.0277,-0.0336,-0.0261,-0.0215,-0.021,-0.0165,-0.0163,-0.0161,-0.0094,-0.0093,-0.0092,-0.0092,0.0039,0.0044,0.0048,0.0067,0,0,0.0063,0.0065,0,0,0,0,0,0,0,0,-0.0281,-0.0274,-0.0223,-0.0218,-0.0212,-0.0142,-0.0141,-0.0084,-0.0094,-0.0136,-0.0092,-0.0092,-0.0018,-0.0009,0.001,0.0073,0.0079,0.0064,0.0067,0.0069,0.007,0,0,0,0,0,0,0,-0.0285,-0.0278,-0.0221,-0.0222,-0.0216,-0.0182,-0.0173,-0.0129,-0.0079,-0.0132,-0.0127,-0.012,-0.0015,0.0006,0.0014,0.0081,0.0064,0.0068,0.0071,0.0073,0.0181,0.0181,0,0,0,0,0,0,-0.0304,-0.0282,-0.0224,-0.0218,-0.0248,-0.0182,-0.0171,-0.0164,-0.008,-0.0068,-0.012,-0.0117,-0.0003,0.0008,0.0019,0.005,0.0069,0.0073,0.0076,0.0181,0.0181,0.0181,0,0,0,0,0,0,-0.0306,-0.0299,-0.0228,-0.0249,-0.0238,-0.0181,-0.0173,-0.0162,-0.0141,-0.0072,-0.0058,-0.011,-0.0002,0.0012,0.0056,0.0055,0.0075,0.008,0.0181,0.0181,0.0181,0.0108,0,0,0,0,0,0,-0.0308,-0.0301,-0.0303,-0.0251,-0.0238,-0.0211,-0.0173,-0.0161,-0.0138,-0.0132,-0.0059,-0.0046,-0.0,0.0048,0.0061,0.0062,0.0083,0.0181,0.0181,0.0181,0.011,0.0106,0.0101,0,0,0,0,0,-0.0311,-0.0319,-0.0304,-0.0297,-0.0242,-0.0212,-0.0202,-0.0158,-0.0138,-0.0135,-0.0083,-0.0048,0.0057,0.0052,0.0067,0.0069,0.0181,0.0181,0.0181,0.0113,0.0107,0.0101,0,0,0,0,0,0,-0.0352,-0.0311,-0.0293,-0.0288,-0.0257,-0.0201,-0.0194,-0.0165,-0.0121,-0.0114,-0.0048,-0.0031,0.0006,0.0047,0.004,0.0101,0.0125,0.0127,0.0068,0.0063,0.0058,0.0047,0.0087,0,0,0,0,0,-0.0364,-0.0359,-0.0315,-0.0311,-0.0299,-0.0249,-0.0231,-0.0202,-0.0157,-0.0137,-0.0086,-0.0031,0.0018,0.0046,0.0091,0.0124,0.0172,0.0136,0.0131,0.0127,0.0128,0.0197,0.0199,0.018,0.018,0.018,0,0,-0.0378,-0.0356,-0.0353,-0.032,-0.0291,-0.0282,-0.0236,-0.0216,-0.0203,-0.0129,-0.0098,-0.0047,0.0022,0.0059,0.008,0.0093,0.0156,0.0127,0.0123,0.0127,0.0198,0.0199,0.0201,0.018,0.018,0.018,0,0,-0.0412,-0.0387,-0.0396,-0.0376,-0.0343,-0.031,-0.0309,-0.0258,-0.023,-0.0196,-0.0138,-0.0088,-0.002,0.0033,0.0068,0.0066,0.0127,0.0078,0.0051,0.0117,0.012,0.0122,0.0176,0.0183,0.0079,0.0079,0.0079,0,-0.0433,-0.0435,-0.0395,-0.0399,-0.0387,-0.0329,-0.0335,-0.0299,-0.024,-0.0215,-0.0197,-0.0083,-0.003,0.0031,0.003,0.0056,0.0099,0.0064,0.0111,0.0115,0.0119,0.0173,0.0183,0.0075,0.0076,0.0076,0.0076,0,-0.047,-0.0473,-0.0477,-0.0462,-0.0443,-0.044,-0.0389,-0.0365,-0.0325,-0.0279,-0.0216,-0.0139,-0.0069,-0.0046,-0.0007,0.0047,0.007,0.0093,0.0121,0.0116,0.0174,0.0185,0.007,0.0071,0.0072,0.0073,0,0,-0.0517,-0.0508,-0.0509,-0.0516,-0.0477,-0.0466,-0.0445,-0.0403,-0.0381,-0.0316,-0.0276,-0.019,-0.0139,-0.0096,-0.0035,0.0024,0.0083,0.0063,0.0068,0.0109,0.0224,0.0249,0.0264,0.0115,0.0117,0.0118,0.0249,0,-0.056,-0.0593,-0.0565,-0.0585,-0.0597,-0.0539,-0.0523,-0.0473,-0.0417,-0.0364,-0.0268,-0.0209,-0.016,-0.0125,-0.0058,0.0052,0.0111,0.0045,0.0229,0.0235,0.0253,0.0278,0.0253,0.0369,0.0261,0.0263,0.0264,0,-0.0606,-0.0622,-0.0658,-0.0651,-0.0648,-0.0645,-0.0602,-0.0576,-0.0484,-0.0438,-0.0355,-0.0275,-0.0172,-0.0134,0.0049,0.0005,0.0104,0.0188,0.0195,0.0254,0.0282,0.0361,0.0394,0.0284,0.0282,0.0281,0.028,0,-0.0669,-0.0683,-0.0716,-0.0715,-0.0697,-0.0695,-0.0674,-0.0602,-0.0573,-0.0479,-0.0443,-0.0309,-0.0232,-0.0095,0.0079,0.0067,0.0283,0.0291,0.0408,0.0411,0.0445,0.0447,0.0418,0.0418,0.0417,0.0417,0.0416,0,-0.0729,-0.0752,-0.0752,-0.0773,-0.0802,-0.0758,-0.0758,-0.0716,-0.0641,-0.0594,-0.0486,-0.0411,-0.0217,-0.0067,0.0075,0.0283,0.0285,0.0414,0.0453,0.0418,0.0416,0.0386,0.0381,0.0422,0.0421,0.042,0.0419,0,-0.0794,-0.0794,-0.0834,-0.0836,-0.0838,-0.0857,-0.0827,-0.0815,-0.0741,-0.0674,-0.0645,-0.0471,-0.0269,-0.0075,0.0171,0.0283,0.0471,0.0541,0.048,0.0509,0.0551,0.054,0.0682,0.0684,0.0686,0.0687,0.0688,0,-0.0831,-0.0862,-0.0894,-0.0922,-0.0927,-0.0941,-0.0946,-0.0879,-0.0852,-0.0695,-0.0663,-0.0459,-0.0285,0.0067,0.0301,0.0556,0.0546,0.066,0.0634,0.0558,0.0582,0.0568,0.0556,0.065,0.0651,0.0652,0.0652,0,-0.0898,-0.0909,-0.0943,-0.1009,-0.1033,-0.1049,-0.1041,-0.1027,-0.0917,-0.0826,-0.0651,-0.0493,-0.0152,0.014,0.0445,0.0585,0.0613,0.0682,0.0648,0.0577,0.0537,0.0557,0.0544,0.0659,0.0658,0.0657,0.0657,0.0657,-0.0938,-0.0983,-0.103,-0.1087,-0.1121,-0.1135,-0.1154,-0.1078,-0.0997,-0.0823,-0.065,-0.0394,-0.0124,0.032,0.0539,0.0717,0.0718,0.0753,0.0748,0.0742,0.0705,0.0669,0.0809,0.0809,0.0809,0.081,0.081,0,-0.0984,-0.1033,-0.11,-0.1164,-0.1222,-0.1212,-0.1204,-0.1192,-0.1077,-0.0816,-0.0602,-0.0279,0.0057,0.0311,0.0615,0.0802,0.0776,0.0811,0.0743,0.0737,0.0731,0.069,0.0792,0.0792,0.0793,0.0793,0,0,-0.1008,-0.1085,-0.1124,-0.1234,-0.1282,-0.1346,-0.1347,-0.1243,-0.1087,-0.0815,-0.057,-0.0279,0.0055,0.026,0.0502,0.0653,0.0637,0.0658,0.0656,0.0542,0.0534,0.0688,0.0617,0,0,0,0,0]}],[{"header":{"parameterUnit":"m.s-1","parameterCategory":2,"la1":30.2991,"la2":30.254,"lo1":-89.0895,"lo2":-89.0444,"dy":0.0017,"dx":0.0017,"nx":28,"ny":28,"refTime":"2025-11-07T03:00:00:Z","depth":"4","parameterNumber":2,"parameterNumberName":"U-component_of_CURRENTS"},"data":[0,0,0,0,0,0,0,0,0,0,0,0,0,0,0,0,0,0,0,0,0,0,0,0,0,0,0,0,0,0,0,0,0,0,0,0,0,0,0,0,0,0,0,0,0,0,0,0,0,0,0,0,0,0,0,0,0,0,-0.178,-0.1781,0,-0.1854,-0.1854,-0.1855,-0.1906,-0.1906,-0.1907,-0.1907,-0.1978,-0.1979,-0.1981,0,0,0,0,0,0,0,0,0,0,0,0,0,-0.1683,-0.1685,-0.178,-0.1781,-0.1782,-0.1854,-0.1854,-0.1855,-0.1906,-0.1906,-0.1907,-0.1908,-0.1978,-0.1979,-0.1981,0,0,0,0,0,0,0,0,0,0,0,0,0,-0.1736,-0.1685,-0.1779,-0.1817,-0.1821,-0.1853,-0.1854,-0.1856,-0.1906,-0.1906,-0.1907,-0.1908,-0.1977,-0.1979,-0.1981,-0.1979,0,0,-0.1988,-0.1989,0,0,0,0,0,0,0,0,-0.1733,-0.174,-0.181,-0.1814,-0.1819,-0.1873,-0.1847,-0.1897,-0.1905,-0.1872,-0.1907,-0.1908,-0.1943,-0.1948,-0.1958,-0.1982,-0.1985,-0.1988,-0.1989,-0.199,-0.1991,0,0,0,0,0,0,0,-0.173,-0.1737,-0.1807,-0.1811,-0.1817,-0.183,-0.1839,-0.1856,-0.1901,-0.1875,-0.1879,-0.189,-0.1945,-0.1956,-0.196,-0.1986,-0.1988,-0.199,-0.1991,-0.1992,-0.2095,-0.2097,0,0,0,0,0,0,-0.1723,-0.1733,-0.1805,-0.181,-0.1779,-0.1832,-0.1841,-0.1853,-0.1901,-0.1909,-0.1889,-0.1892,-0.1952,-0.1958,-0.1963,-0.2041,-0.199,-0.1992,-0.1993,-0.2094,-0.2096,-0.2097,0,0,0,0,0,0,-0.1721,-0.1729,-0.1802,-0.1774,-0.1785,-0.1833,-0.1846,-0.1855,-0.1896,-0.1912,-0.192,-0.1926,-0.1953,-0.196,-0.2011,-0.2041,-0.1993,-0.1995,-0.2092,-0.2094,-0.2096,-0.2148,0,0,0,0,0,0,-0.1717,-0.1727,-0.1748,-0.1774,-0.1786,-0.1844,-0.1846,-0.1855,-0.19,-0.1905,-0.1946,-0.1951,-0.1954,-0.2008,-0.2013,-0.2043,-0.1996,-0.209,-0.2093,-0.2096,-0.2144,-0.2152,-0.2158,0,0,0,0,0,-0.1714,-0.1736,-0.1749,-0.1758,-0.1809,-0.1846,-0.1854,-0.1889,-0.1901,-0.1927,-0.1957,-0.1952,-0.2029,-0.2011,-0.2016,-0.2048,-0.2089,-0.2092,-0.2095,-0.2141,-0.215,-0.2158,0,0,0,0,0,0,-0.1707,-0.1744,-0.1759,-0.1792,-0.1828,-0.1856,-0.1885,-0.1905,-0.1949,-0.1962,-0.1972,-0.1981,-0.2036,-0.2036,-0.2016,-0.2086,-0.2057,-0.2062,-0.209,-0.2098,-0.2105,-0.2101,-0.1998,0,0,0,0,0,-0.1713,-0.1741,-0.1776,-0.1806,-0.1825,-0.186,-0.1885,-0.191,-0.1944,-0.1966,-0.1994,-0.2023,-0.2049,-0.207,-0.2093,-0.2132,-0.2107,-0.2156,-0.2163,-0.2168,-0.217,-0.2159,-0.2164,-0.2108,-0.2108,-0.2108,0,0,-0.1719,-0.1744,-0.176,-0.1807,-0.1836,-0.1874,-0.1878,-0.1926,-0.1965,-0.1965,-0.2034,-0.2052,-0.2065,-0.2112,-0.2136,-0.212,-0.2171,-0.2173,-0.2177,-0.2176,-0.2163,-0.2168,-0.2173,-0.211,-0.211,-0.211,0,0,-0.1734,-0.1767,-0.1794,-0.1828,-0.1881,-0.1903,-0.1924,-0.1973,-0.2007,-0.2065,-0.2075,-0.2112,-0.2159,-0.2173,-0.2182,-0.224,-0.2208,-0.2253,-0.2285,-0.2275,-0.2279,-0.2282,-0.2249,-0.2249,-0.2255,-0.2255,-0.2255,0,-0.1743,-0.178,-0.1809,-0.1847,-0.1879,-0.192,-0.196,-0.1998,-0.2061,-0.2086,-0.2098,-0.2165,-0.2184,-0.2222,-0.2249,-0.2255,-0.2235,-0.2252,-0.2282,-0.2285,-0.2287,-0.2253,-0.2252,-0.2258,-0.2258,-0.2257,-0.2257,0,-0.177,-0.1815,-0.1836,-0.1895,-0.1934,-0.1978,-0.2029,-0.2078,-0.212,-0.2149,-0.2211,-0.2235,-0.2268,-0.2286,-0.229,-0.2323,-0.2299,-0.2291,-0.2257,-0.2296,-0.2257,-0.2255,-0.2262,-0.2261,-0.226,-0.2259,0,0,-0.1743,-0.1838,-0.1848,-0.1886,-0.1965,-0.1996,-0.2066,-0.2126,-0.2165,-0.2226,-0.2264,-0.2322,-0.2332,-0.2344,-0.2353,-0.2354,-0.236,-0.2339,-0.2338,-0.2298,-0.2323,-0.2161,-0.2143,-0.2358,-0.2358,-0.2358,-0.2285,0,-0.1757,-0.183,-0.1877,-0.1951,-0.199,-0.2052,-0.2107,-0.2169,-0.222,-0.2268,-0.2297,-0.2341,-0.2354,-0.2373,-0.2381,-0.2368,-0.236,-0.238,-0.2298,-0.2296,-0.214,-0.2137,-0.2359,-0.2284,-0.2283,-0.2283,-0.2282,0,-0.1758,-0.1811,-0.1886,-0.1977,-0.2,-0.2055,-0.2139,-0.2194,-0.2265,-0.2301,-0.2345,-0.2367,-0.2398,-0.2395,-0.2384,-0.2398,-0.237,-0.2349,-0.2346,-0.2174,-0.213,-0.224,-0.2278,-0.2279,-0.2279,-0.2279,-0.228,0,-0.1705,-0.1811,-0.1872,-0.1906,-0.2016,-0.2064,-0.2124,-0.2206,-0.2246,-0.2321,-0.2343,-0.2384,-0.2395,-0.2384,-0.2359,-0.2376,-0.2315,-0.2326,-0.2147,-0.2135,-0.2282,-0.2279,-0.2303,-0.2303,-0.2303,-0.2303,-0.2303,0,-0.1679,-0.1731,-0.1859,-0.189,-0.1957,-0.2046,-0.2115,-0.2176,-0.2252,-0.2275,-0.2356,-0.2353,-0.2395,-0.2369,-0.2349,-0.2223,-0.2302,-0.2138,-0.2102,-0.2305,-0.2306,-0.2279,-0.2278,-0.23,-0.2301,-0.2302,-0.2302,0,-0.1602,-0.1692,-0.1765,-0.1893,-0.1934,-0.1981,-0.21,-0.2133,-0.2225,-0.2252,-0.2274,-0.2327,-0.2278,-0.2282,-0.2241,-0.2176,-0.2096,-0.2033,-0.223,-0.2208,-0.1928,-0.1931,-0.1823,-0.1817,-0.1811,-0.1807,-0.1803,0,-0.1564,-0.1598,-0.1742,-0.1779,-0.1842,-0.1931,-0.1976,-0.2098,-0.2123,-0.2204,-0.2187,-0.2188,-0.2197,-0.1991,-0.2031,-0.1943,-0.1928,-0.1883,-0.1929,-0.1902,-0.1878,-0.1889,-0.1898,-0.1794,-0.1793,-0.1791,-0.179,0,-0.1479,-0.1547,-0.1604,-0.1681,-0.1747,-0.1805,-0.1883,-0.1885,-0.1996,-0.2103,-0.2025,-0.1982,-0.191,-0.186,-0.1793,-0.1748,-0.1915,-0.1826,-0.1838,-0.1881,-0.1866,-0.185,-0.1866,-0.1771,-0.1774,-0.1776,-0.1777,0,-0.1408,-0.1423,-0.1502,-0.1548,-0.1628,-0.1638,-0.1707,-0.1718,-0.1757,-0.1857,-0.1819,-0.182,-0.1872,-0.1755,-0.1701,-0.1629,-0.1616,-0.1584,-0.1609,-0.163,-0.1602,-0.1557,-0.1317,0,0,0,0,0,-0.1325,-0.1318,-0.1355,-0.139,-0.146,-0.1496,-0.1613,-0.1684,-0.1797,-0.1686,-0.1746,-0.167,-0.1575,-0.1586,-0.1465,-0.162,-0.163,-0.1477,-0.1609,-0.1666,-0.1688,-0.1674,0,0,0,0,0,0,-0.1266,-0.1298,-0.1303,-0.1241,-0.1224,-0.1275,-0.1342,-0.1427,-0.1382,-0.1502,-0.145,-0.1547,-0.1473,-0.1579,-0.1411,-0.1416,-0.1464,-0.1498,-0.1494,-0.1654,-0.1674,-0.1691,-0.1684,0,0,0,0,0]},{"header":{"parameterUnit":"m.s-1","parameterCategory":2,"la1":30.2991,"la2":30.254,"lo1":-89.0895,"lo2":-89.0444,"dy":0.0017,"dx":0.0017,"nx":28,"ny":28,"refTime":"2025-11-07T03:00:00:Z","depth":"4","parameterNumber":3,"parameterNumberName":"V-component_of_CURRENTS"},"data":[0,0,0,0,0,0,0,0,0,0,0,0,0,0,0,0,0,0,0,0,0,0,0,0,0,0,0,0,0,0,0,0,0,0,0,0,0,0,0,0,0,0,0,0,0,0,0,0,0,0,0,0,0,0,0,0,0,0,-0.0228,-0.0228,0,-0.0164,-0.0163,-0.0162,-0.0115,-0.0115,-0.0115,-0.0115,-0.0012,-0.001,-0.0007,0,0,0,0,0,0,0,0,0,0,0,0,0,-0.0269,-0.0269,-0.0228,-0.0228,-0.0227,-0.0164,-0.0163,-0.0162,-0.0115,-0.0115,-0.0115,-0.0115,-0.0013,-0.001,-0.0007,0,0,0,0,0,0,0,0,0,0,0,0,0,-0.0231,-0.0268,-0.0228,-0.0197,-0.0194,-0.0164,-0.0163,-0.0162,-0.0115,-0.0115,-0.0115,-0.0114,-0.0014,-0.0011,-0.0007,0.0009,0,0,0.0005,0.0006,0,0,0,0,0,0,0,0,-0.0233,-0.0229,-0.0203,-0.02,-0.0196,-0.0149,-0.014,-0.0103,-0.0116,-0.0143,-0.0115,-0.0114,-0.0056,-0.0049,-0.0035,0.0014,0.0018,0.0005,0.0007,0.0009,0.001,0,0,0,0,0,0,0,-0.0236,-0.0232,-0.0201,-0.0202,-0.0198,-0.0173,-0.0167,-0.0133,-0.01,-0.0141,-0.0138,-0.0134,-0.0054,-0.0039,-0.0033,0.002,0.0005,0.0008,0.001,0.0012,0.0098,0.0098,0,0,0,0,0,0,-0.025,-0.0235,-0.0203,-0.0199,-0.0216,-0.0173,-0.0166,-0.0163,-0.0101,-0.0093,-0.0134,-0.0132,-0.0046,-0.0037,-0.0029,-0.0004,0.0009,0.0012,0.0014,0.0098,0.0098,0.0098,0,0,0,0,0,0,-0.0251,-0.0248,-0.0206,-0.0217,-0.021,-0.0173,-0.0169,-0.0162,-0.0149,-0.0097,-0.0087,-0.0129,-0.0045,-0.0034,-0.0001,0.0,0.0014,0.0017,0.0098,0.0098,0.0098,0.0044,0,0,0,0,0,0,-0.0253,-0.0249,-0.0254,-0.0218,-0.021,-0.0197,-0.0169,-0.0161,-0.0148,-0.0144,-0.0089,-0.0079,-0.0044,-0.0007,0.0002,0.0006,0.002,0.0098,0.0098,0.0098,0.0046,0.0042,0.0039,0,0,0,0,0,-0.0254,-0.0264,-0.0255,-0.0251,-0.0217,-0.0197,-0.0191,-0.0162,-0.0148,-0.0148,-0.0108,-0.0081,0.0,-0.0004,0.0007,0.0011,0.0098,0.0098,0.0098,0.0047,0.0043,0.0039,0,0,0,0,0,0,-0.0283,-0.0259,-0.0248,-0.0249,-0.023,-0.019,-0.0189,-0.0168,-0.0136,-0.0132,-0.0081,-0.0068,-0.0039,-0.0008,-0.0014,0.0037,0.0054,0.0056,0.0011,0.0008,0.0005,-0.0005,0.0023,0,0,0,0,0,-0.0294,-0.0295,-0.0266,-0.0268,-0.0261,-0.0226,-0.0215,-0.0196,-0.0163,-0.0149,-0.0111,-0.0068,-0.003,-0.0008,0.0028,0.0055,0.0092,0.0066,0.0062,0.0059,0.006,0.0118,0.012,0.0098,0.0098,0.0098,0,0,-0.0307,-0.0294,-0.0294,-0.0275,-0.0257,-0.0251,-0.0218,-0.0207,-0.0198,-0.0143,-0.0121,-0.0081,-0.0026,0.0004,0.0021,0.0031,0.0083,0.006,0.0056,0.0059,0.0118,0.012,0.0122,0.0098,0.0098,0.0098,0,0,-0.0333,-0.0321,-0.0331,-0.0318,-0.0298,-0.0274,-0.0275,-0.024,-0.0221,-0.0196,-0.0152,-0.0111,-0.0059,-0.0015,0.0014,0.0015,0.0061,0.0024,0.0005,0.006,0.0063,0.0065,0.0105,0.0112,0.0025,0.0025,0.0025,0,-0.0351,-0.0356,-0.0331,-0.0335,-0.0329,-0.0289,-0.0296,-0.027,-0.0228,-0.0211,-0.0199,-0.0108,-0.0066,-0.0013,-0.0013,0.0008,0.0041,0.0013,0.0056,0.0059,0.0063,0.0103,0.0111,0.0023,0.0023,0.0023,0.0023,0,-0.0379,-0.0386,-0.0391,-0.0382,-0.0371,-0.0372,-0.0336,-0.0321,-0.0294,-0.026,-0.0212,-0.0149,-0.0093,-0.0073,-0.0041,0.0006,0.0021,0.0041,0.0063,0.0062,0.0104,0.0114,0.0019,0.002,0.0021,0.0021,0,0,-0.0413,-0.0412,-0.0415,-0.0423,-0.0398,-0.0393,-0.0379,-0.035,-0.0337,-0.0287,-0.0258,-0.0185,-0.0146,-0.0111,-0.006,-0.0009,0.0041,0.0021,0.0025,0.0055,0.0154,0.0129,0.0137,0.0069,0.007,0.0071,0.017,0,-0.0444,-0.0472,-0.0455,-0.0476,-0.0486,-0.0448,-0.0439,-0.0405,-0.0366,-0.0328,-0.0249,-0.0204,-0.0161,-0.0133,-0.0075,0.0014,0.0064,0.0011,0.0157,0.0161,0.0134,0.0146,0.0076,0.0178,0.018,0.0181,0.0183,0,-0.0475,-0.0492,-0.0524,-0.0527,-0.0527,-0.0531,-0.0508,-0.0491,-0.0424,-0.0391,-0.0325,-0.026,-0.0172,-0.014,0.0012,-0.0024,0.0057,0.0126,0.0132,0.0134,0.0152,0.0184,0.02,0.0199,0.0197,0.0196,0.0195,0,-0.0517,-0.0536,-0.0568,-0.057,-0.0565,-0.0572,-0.0564,-0.0516,-0.0498,-0.0428,-0.0403,-0.029,-0.0229,-0.0112,0.003,0.0024,0.0196,0.0208,0.0263,0.0262,0.0279,0.0276,0.0314,0.0314,0.0314,0.0314,0.0313,0,-0.0552,-0.0578,-0.0597,-0.0615,-0.0651,-0.0623,-0.0637,-0.0611,-0.056,-0.0529,-0.044,-0.0382,-0.0218,-0.0097,0.0024,0.017,0.0196,0.0262,0.0289,0.0252,0.0245,0.0285,0.0281,0.0317,0.0317,0.0316,0.0315,0,-0.0589,-0.0601,-0.0644,-0.0664,-0.0675,-0.07,-0.0699,-0.0696,-0.0647,-0.0602,-0.0579,-0.0441,-0.0283,-0.0123,0.0081,0.0155,0.03,0.0346,0.0287,0.0309,0.0328,0.0319,0.041,0.041,0.041,0.041,0.041,0,-0.0608,-0.0636,-0.0692,-0.0727,-0.0744,-0.0773,-0.0789,-0.075,-0.0734,-0.0626,-0.06,-0.0446,-0.0339,-0.0074,0.0086,0.0301,0.033,0.0384,0.0361,0.0322,0.034,0.0331,0.0323,0.041,0.041,0.041,0.041,0,-0.0644,-0.0671,-0.0707,-0.0788,-0.0827,-0.0858,-0.087,-0.0858,-0.0785,-0.0744,-0.0595,-0.0443,-0.0268,-0.0066,0.0095,0.0253,0.0335,0.0385,0.0386,0.0364,0.0323,0.0339,0.0331,0.041,0.041,0.041,0.041,0,-0.067,-0.071,-0.077,-0.0833,-0.0894,-0.0921,-0.0918,-0.0868,-0.0832,-0.0695,-0.0639,-0.0435,-0.0304,-0.0089,0.0069,0.0207,0.0236,0.0261,0.0268,0.027,0.0192,0.0118,0.0168,0,0,0,0,0,-0.0689,-0.0739,-0.0808,-0.0878,-0.094,-0.0971,-0.0961,-0.0935,-0.0858,-0.0758,-0.0691,-0.0514,-0.0257,-0.014,-0.0004,0.0042,0.0233,0.0199,0.0258,0.041,0.041,0.0339,0,0,0,0,0,0,-0.0704,-0.0774,-0.0811,-0.0903,-0.0959,-0.1013,-0.1006,-0.095,-0.0876,-0.0776,-0.0631,-0.0522,-0.0272,-0.0342,-0.0017,0.0027,0.0074,0.0331,0.0333,0.041,0.041,0.041,0.0337,0,0,0,0,0]}]]